Wind_Speed
5 4 3 3 3 3 3 3 4 3 4 4 4 5 4 4 4 3 4 4 3 3 2 2 2 3 3 3 3 3 3 3 3 3 4 4 4 3 3 3 3 2 1
5 4 4 4 4 4 3 3 3 3 3 3 4 5 4 4 4 3 3 3 3 3 3 2 2 3 3 4 4 4 3 3 2 3 3 4 4 3 3 3 2 2 2
5 5 4 3 3 3 3 2 2 2 2 2 3 3 3 4 4 3 3 3 3 3 2 2 2 2 3 4 4 4 4 3 2 3 3 3 3 4 4 4 3 3 2
5 4 4 3 3 3 2 2 2 2 2 2 3 2 2 3 4 4 3 3 3 3 3 2 2 3 3 3 4 4 4 3 3 3 3 3 3 4 4 4 4 3 3
5 4 4 4 4 3 3 3 2 2 2 2 2 1 2 2 3 4 3 3 3 3 3 3 2 3 3 3 4 4 4 3 3 3 3 3 3 4 4 4 4 4 4
5 5 4 4 3 3 3 2 3 2 2 2 1 1 1 1 2 3 3 2 2 2 3 3 3 3 3 3 4 4 4 4 4 4 4 4 4 4 4 4 4 4 5
5 4 3 3 3 2 3 3 3 3 2 2 1 1 0 0 1 2 2 2 2 2 3 3 4 3 3 4 4 4 4 4 4 5 5 5 5 5 4 4 5 4 5
6 4 3 3 2 2 2 3 2 2 1 1 1 1 1 1 1 1 1 2 3 3 3 3 4 4 4 4 4 5 5 4 5 5 5 5 5 5 5 5 5 5 5
6 5 4 3 2 2 2 2 2 2 2 1 1 0 1 1 1 1 2 2 3 4 4 3 4 5 5 5 5 5 6 6 6 5 5 6 6 6 6 6 6 6 6
7 6 5 4 3 2 2 2 2 2 1 1 0 1 0 1 1 2 3 3 4 4 4 3 4 5 6 6 7 7 7 7 7 6 6 6 6 6 6 6 6 6 7
8 7 6 5 4 3 3 3 2 2 2 1 1 1 0 1 2 2 3 3 4 3 3 3 4 5 5 5 6 7 7 8 7 7 8 7 7 7 7 7 7 7 7
8 7 7 5 5 4 4 3 3 3 2 2 2 2 2 2 3 3 3 3 3 3 3 4 4 4 4 5 5 6 7 7 7 7 9 8 8 8 8 8 8 8 7
7 7 7 6 5 5 5 4 4 4 3 3 3 3 3 3 3 3 3 3 3 4 4 4 4 4 4 5 6 5 5 6 6 7 8 8 8 7 8 8 8 8 9
7 7 6 6 6 5 5 4 4 3 3 3 3 3 3 3 3 3 3 4 4 4 5 5 5 5 5 6 6 6 6 6 7 7 7 8 7 7 8 7 7 7 9
7 7 7 7 7 6 6 5 4 4 3 2 2 3 3 3 3 3 3 4 5 5 5 5 5 5 6 6 6 7 7 7 7 7 7 8 8 8 8 8 8 8 8
8 8 8 7 8 7 5 5 5 4 3 3 3 3 3 3 3 3 4 4 4 4 5 5 5 5 5 6 6 6 6 6 7 7 8 8 8 8 8 9 9 10 10
9 8 8 7 7 7 6 6 6 5 4 4 4 4 3 3 3 3 4 4 4 4 5 5 5 5 5 6 5 6 6 6 7 8 8 9 8 9 9 9 10 10 10
9 9 8 8 7 7 6 6 5 4 4 4 4 4 4 4 4 4 4 5 5 5 5 5 5 5 6 6 6 6 6 6 6 7 7 8 9 9 9 10 10 10 10
8 8 8 8 8 7 7 6 6 5 5 5 5 5 5 5 5 5 4 4 5 5 4 5 6 6 5 5 5 6 6 6 6 7 7 8 8 8 9 10 10 9 10
8 8 8 8 8 7 7 7 6 6 5 5 6 5 5 4 4 4 4 5 4 4 5 4 5 5 5 5 5 5 6 6 7 8 8 8 8 8 9 10 10 9 9
8 8 8 8 7 7 7 7 6 6 6 6 6 5 5 4 5 5 5 5 5 4 4 4 4 5 5 6 5 5 6 6 7 7 8 8 8 9 9 9 9 10 10
8 8 8 8 7 7 7 6 6 6 6 6 6 5 5 5 5 5 5 4 5 4 4 5 5 6 7 7 6 7 7 7 7 7 8 8 8 8 9 10 9 10 10
8 9 9 8 8 8 7 7 6 7 7 6 5 5 5 5 5 5 5 5 5 6 6 6 7 7 8 8 8 8 9 8 8 8 8 8 8 8 9 10 9 9 9
9 9 9 9 8 8 8 7 7 7 7 7 6 6 5 5 5 5 5 6 6 6 7 8 9 9 9 10 9 9 10 10 9 9 9 8 8 9 9 8 8 8 9
10 10 9 8 8 8 8 8 8 8 8 7 7 6 5 5 5 6 7 7 7 8 9 10 10 9 10 11 10 10 11 10 10 10 9 8 8 8 9 9 9 9 8
11 10 9 9 8 8 8 8 8 8 7 7 7 7 7 7 7 8 8 9 9 10 10 11 11 10 11 11 11 11 11 11 11 10 9 9 8 8 9 9 10 10 10
Wind_Direction
68 72 77 73 72 88 110 125 121 122 141 148 160 168 177 180 183 192 184 182 182 184 183 174 179 186 187 186 188 191 197 201 199 195 194 196 209 212 207 206 215 214 213
63 64 73 74 76 86 97 102 116 116 117 138 163 174 183 189 186 189 185 185 191 190 189 197 190 191 195 192 187 186 190 195 194 188 201 208 207 213 213 215 209 204 207
63 60 68 77 86 84 89 105 117 124 129 138 152 163 182 194 192 194 192 199 201 209 207 207 220 226 217 204 199 195 193 191 196 197 209 210 206 210 207 216 216 212 222
62 62 70 79 90 89 89 94 114 122 139 144 144 143 176 198 211 207 210 210 219 223 228 230 231 232 230 217 212 207 204 201 206 219 228 219 216 216 213 223 222 220 229
59 64 74 77 75 74 81 97 117 138 145 150 146 139 157 181 206 215 227 224 224 236 241 233 245 243 247 239 229 220 216 214 219 237 246 239 232 230 221 222 222 228 234
57 65 73 73 70 67 70 98 129 143 153 157 163 154 143 198 221 225 247 224 233 254 257 250 248 250 248 240 233 228 230 229 231 241 253 251 242 234 224 230 236 241 250
47 51 61 70 67 69 82 91 109 128 141 143 148 103 114 222 235 237 250 242 241 258 271 260 251 250 250 239 236 239 242 240 242 245 255 257 249 236 231 245 250 253 259
43 41 52 60 58 81 99 102 98 102 110 107 116 180 200 195 229 262 266 266 261 264 267 267 264 256 258 245 240 240 244 244 245 246 252 255 247 238 244 248 254 257 261
39 40 45 57 70 85 88 101 109 109 101 104 122 229 226 230 248 292 291 289 281 281 281 272 260 257 262 255 251 249 249 247 247 247 244 248 246 248 249 249 255 261 268
36 45 54 64 74 85 89 101 100 105 97 106 132 195 25 311 288 304 306 298 292 294 292 280 266 258 261 262 263 258 256 256 255 257 255 251 248 250 253 253 260 263 272
36 45 54 66 73 81 76 81 78 70 56 67 77 99 32 309 302 306 316 310 296 294 292 280 269 259 259 261 265 266 260 256 258 256 257 253 251 256 257 262 266 267 273
39 46 46 52 61 67 66 64 66 55 52 70 55 26 349 312 310 312 319 325 307 294 291 286 275 267 264 267 273 272 267 263 260 257 255 261 264 261 262 265 267 270 275
41 43 44 45 47 51 49 45 55 55 53 48 40 22 4 337 316 311 309 309 310 295 290 286 283 277 279 273 273 279 274 269 266 258 259 266 268 260 258 261 266 271 272
38 38 39 35 36 38 37 38 44 52 45 26 19 7 355 345 331 322 307 298 301 301 303 297 282 278 279 279 275 272 270 263 263 259 263 269 267 266 263 260 261 267 270
31 30 31 31 28 30 33 28 27 32 26 19 4 349 343 347 341 334 315 305 297 295 300 302 290 278 278 282 278 270 265 261 258 258 258 259 261 260 263 265 258 262 266
33 30 31 31 30 32 31 26 17 14 9 3 350 344 343 338 334 331 329 316 302 290 289 292 284 279 280 279 272 267 267 265 255 253 256 258 262 261 263 264 270 271 268
31 28 28 28 26 26 26 21 11 11 4 354 350 346 344 339 341 338 333 323 308 296 288 285 279 279 279 278 272 268 269 268 264 261 262 263 263 264 267 269 270 273 270
23 22 23 22 17 14 13 8 1 357 352 341 341 343 345 344 340 333 323 316 311 306 293 282 277 277 279 282 279 275 269 271 277 274 270 266 266 266 269 270 270 267 269
13 11 12 13 12 12 9 2 355 352 348 344 344 345 340 337 332 331 326 319 310 301 295 289 284 282 278 283 285 275 273 274 277 277 272 267 267 263 265 266 267 267 268
1 0 0 1 5 7 4 0 357 353 349 345 347 350 345 334 328 324 324 325 321 311 311 302 290 288 284 281 281 278 281 280 279 283 279 271 270 268 267 265 265 274 276
353 352 354 354 358 359 357 353 350 343 342 343 343 345 346 343 338 329 324 331 327 323 329 316 296 296 295 288 283 287 290 295 293 290 284 276 272 269 268 269 270 273 276
350 348 345 345 349 349 346 343 339 337 337 336 336 332 334 335 332 331 323 320 324 329 332 321 306 300 292 289 288 292 295 294 293 293 289 283 276 265 259 266 272 274 278
343 339 337 336 338 339 338 335 328 329 333 332 332 327 326 328 324 318 317 311 316 320 313 306 303 297 294 293 288 287 290 292 293 294 293 287 283 272 263 264 268 275 278
335 331 330 328 326 327 327 326 321 320 322 321 316 313 311 313 316 313 306 300 302 309 309 305 301 299 296 294 289 286 286 287 287 286 286 286 283 276 270 268 274 273 274
331 325 325 323 321 322 322 318 318 314 311 307 301 300 300 305 308 306 305 307 302 305 304 303 303 301 298 298 295 289 284 283 285 284 282 283 283 280 277 274 277 277 279
321 318 316 318 320 324 322 320 323 321 312 302 297 297 298 299 298 300 301 304 301 300 299 297 296 295 299 302 301 297 292 285 285 287 287 285 282 280 279 276 276 280 283
Height
5890 5890 5889 5889 5889 5889 5890 5890 5890 5890 5891 5891 5891 5892 5892 5893 5893 5894 5894 5894 5894 5894 5894 5894 5894 5894 5894 5895 5895 5895 5895 5895 5895 5895 5895 5895 5894 5894 5894 5894 5895 5895 5895
5891 5891 5890 5890 5890 5890 5890 5891 5891 5891 5891 5892 5892 5892 5893 5893 5894 5894 5894 5894 5894 5894 5894 5894 5894 5894 5894 5895 5895 5895 5895 5895 5895 5894 5894 5894 5894 5894 5894 5894 5894 5894 5894
5892 5891 5891 5891 5891 5891 5891 5891 5891 5892 5892 5892 5893 5893 5893 5893 5894 5894 5894 5894 5894 5894 5894 5894 5894 5894 5894 5894 5895 5895 5895 5895 5894 5894 5894 5894 5894 5894 5894 5894 5894 5894 5894
5892 5892 5892 5891 5891 5891 5891 5892 5892 5892 5892 5893 5893 5893 5893 5893 5893 5894 5894 5894 5894 5894 5894 5894 5894 5894 5894 5894 5894 5894 5894 5894 5894 5894 5894 5894 5894 5893 5893 5893 5893 5893 5893
5893 5893 5892 5892 5892 5892 5892 5892 5892 5892 5893 5893 5893 5893 5893 5893 5893 5893 5893 5893 5893 5894 5893 5893 5893 5893 5893 5893 5893 5894 5894 5894 5894 5894 5893 5893 5893 5893 5893 5893 5893 5893 5892
5893 5893 5892 5892 5892 5892 5892 5892 5892 5893 5893 5893 5893 5893 5893 5893 5893 5893 5893 5893 5893 5893 5893 5893 5893 5893 5893 5893 5893 5893 5893 5894 5893 5893 5893 5893 5892 5892 5892 5892 5892 5892 5892
5894 5893 5893 5892 5892 5892 5892 5892 5893 5893 5893 5893 5893 5893 5893 5893 5893 5893 5893 5893 5893 5893 5893 5892 5892 5892 5892 5892 5892 5892 5892 5893 5893 5893 5892 5892 5892 5891 5891 5891 5891 5891 5891
5893 5893 5892 5892 5893 5892 5892 5892 5893 5893 5893 5893 5893 5893 5893 5893 5893 5893 5893 5892 5892 5892 5892 5891 5891 5891 5891 5891 5891 5891 5891 5891 5891 5891 5891 5890 5890 5890 5890 5890 5890 5890 5890
5893 5893 5892 5892 5892 5892 5892 5892 5892 5892 5893 5893 5893 5893 5893 5892 5892 5892 5892 5892 5892 5891 5890 5890 5890 5890 5890 5890 5890 5890 5890 5890 5890 5890 5890 5889 5889 5889 5889 5889 5889 5889 5888
5894 5893 5892 5892 5892 5892 5892 5892 5892 5892 5892 5892 5892 5892 5892 5892 5892 5892 5891 5891 5891 5890 5889 5889 5888 5888 5888 5888 5888 5888 5888 5888 5888 5888 5888 5888 5888 5888 5888 5888 5887 5887 5887
5894 5893 5892 5892 5893 5892 5892 5892 5892 5892 5892 5892 5891 5891 5891 5891 5891 5891 5891 5890 5889 5889 5888 5888 5887 5887 5887 5887 5886 5886 5886 5887 5887 5886 5886 5886 5886 5886 5886 5886 5885 5885 5885
5895 5894 5893 5893 5893 5893 5892 5892 5892 5892 5892 5891 5891 5891 5891 5890 5890 5890 5890 5889 5888 5888 5888 5887 5886 5886 5886 5885 5885 5885 5885 5885 5885 5884 5884 5884 5884 5884 5884 5884 5883 5883 5883
5896 5895 5894 5894 5893 5893 5892 5892 5892 5892 5891 5891 5891 5891 5890 5890 5889 5889 5888 5888 5887 5887 5886 5886 5885 5884 5884 5884 5883 5883 5883 5883 5883 5883 5882 5882 5881 5881 5881 5881 5881 5881 5881
5897 5896 5895 5895 5894 5894 5893 5893 5892 5892 5891 5891 5891 5890 5890 5889 5888 5887 5887 5887 5886 5886 5885 5884 5883 5883 5882 5882 5882 5882 5881 5881 5881 5880 5880 5880 5879 5879 5878 5878 5878 5878 5878
5898 5897 5896 5895 5894 5893 5893 5892 5892 5891 5891 5891 5890 5889 5889 5888 5887 5886 5886 5885 5884 5884 5883 5882 5881 5881 5881 5880 5880 5880 5880 5879 5879 5878 5878 5878 5877 5877 5876 5876 5876 5876 5875
5898 5897 5896 5895 5894 5893 5892 5892 5891 5891 5890 5890 5889 5888 5888 5887 5886 5885 5884 5884 5883 5882 5881 5881 5880 5879 5879 5878 5878 5878 5878 5877 5877 5876 5876 5875 5874 5874 5874 5873 5873 5873 5873
5898 5897 5896 5895 5894 5894 5893 5892 5891 5890 5889 5889 5888 5887 5887 5886 5885 5884 5883 5882 5881 5880 5880 5879 5878 5878 5877 5877 5876 5876 5875 5875 5874 5874 5873 5872 5872 5872 5871 5871 5871 5870 5870
5898 5897 5896 5895 5894 5893 5893 5892 5891 5890 5889 5888 5887 5886 5885 5884 5884 5883 5882 5881 5880 5879 5878 5877 5877 5876 5875 5875 5874 5873 5873 5872 5871 5870 5870 5869 5869 5869 5869 5868 5868 5867 5867
5899 5897 5896 5895 5894 5893 5892 5891 5890 5889 5888 5887 5885 5884 5884 5883 5882 5882 5880 5879 5878 5877 5876 5876 5875 5874 5873 5873 5872 5871 5871 5870 5869 5868 5866 5866 5866 5866 5866 5865 5865 5864 5864
5898 5897 5896 5894 5893 5892 5891 5890 5889 5888 5887 5885 5884 5883 5882 5881 5881 5880 5879 5878 5877 5876 5875 5874 5873 5872 5872 5871 5870 5870 5869 5867 5866 5865 5864 5864 5863 5863 5863 5863 5863 5862 5862
5898 5897 5895 5894 5892 5891 5890 5889 5888 5887 5885 5884 5883 5882 5881 5880 5879 5878 5877 5876 5875 5874 5874 5873 5872 5871 5870 5869 5869 5868 5866 5865 5864 5862 5861 5861 5860 5860 5860 5860 5860 5860 5860
5898 5896 5895 5893 5892 5890 5889 5888 5887 5886 5884 5883 5882 5881 5880 5879 5878 5877 5876 5875 5874 5873 5872 5872 5871 5869 5868 5867 5867 5866 5865 5864 5861 5860 5858 5857 5857 5857 5857 5858 5858 5857 5857
5897 5895 5894 5892 5891 5890 5888 5887 5886 5884 5883 5882 5881 5880 5879 5878 5877 5876 5875 5874 5873 5872 5871 5870 5869 5868 5867 5865 5864 5864 5863 5861 5860 5858 5856 5855 5854 5854 5855 5855 5855 5855 5854
5896 5894 5892 5891 5890 5888 5887 5885 5884 5883 5882 5881 5879 5878 5877 5876 5875 5874 5873 5872 5871 5870 5869 5868 5867 5865 5864 5863 5862 5861 5860 5859 5858 5856 5855 5853 5853 5852 5853 5852 5852 5852 5852
5894 5892 5891 5889 5888 5887 5885 5884 5882 5881 5880 5879 5878 5876 5875 5874 5873 5872 5871 5870 5869 5868 5866 5865 5864 5863 5861 5860 5859 5858 5857 5856 5855 5854 5853 5852 5851 5851 5850 5850 5850 5849 5849
5892 5890 5889 5887 5886 5885 5883 5882 5880 5879 5878 5877 5875 5874 5873 5872 5871 5870 5869 5868 5866 5865 5864 5862 5861 5859 5858 5857 5856 5855 5854 5853 5852 5851 5850 5849 5849 5848 5848 5847 5847 5846 5846